COSMOS 1375 DEB

Satellite information

Favourite Embed

Satellite Type and Status

DEBRISIN ORBIT

Key statistics

Satellite COSMOS 1375 DEB at a glance.

Uptime

15676

Days in orbit

Revolutions

≈ 14.4

Per day

Orbit

LEO

Low Earth Orbit

Inclination

65.8

Latest

Satellite identification and parameters

Extended collection of information and parameters for COSMOS 1375 DEB.

Object identification

Identified? True

Debris? True

Object name: COSMOS 1375 DEB

International designator: 1982-055BL

Object number (NORAD): 19453

Object ID (CCSDS): 19453

Country: COMMONWEALTH OF INDEPENDENT STATES (CIS)

Current information (Y/N): Y

RCS size: SMALL

Orbital parameters

Period: 99.903 minutes

Inclination: 65.8038 deg

SMA: 7132.0 km

Apoapsis: 794.876 km

Periapsis: 712.855 km

RAAN: 3.9562 deg

Eccentricy: 0.0057502

Argument of periapsis: 301.0245 deg

Mean anomaly: 179.5386 deg

Mean motion: 14.41404046 rev/day

Mean motion (dot): 0.00004087 rev/day2

B* drag term: 0.0012626 1/REarth

Two-line elements (TLE)

Creation date: May 6, 2025, 3:54 a.m.

Reference frame: TEME

Reference center: EARTH

Epoch: May 5, 2025, 1:27 a.m. UTC

TLE line 0: 0 COSMOS 1375 DEB

TLE line 1: 1 19453U 82055BL 25125.06104985 .00004087 00000-0 12626-2 0 9998

TLE line 2: 2 19453 65.8038 3.9562 0057502 301.0245 179.5386 14.41404046913418

Live tracking on map

Real-time ground track for satellite COSMOS 1375 DEB.

In-orbit conjunctions

A list of the most updated potential collisions computed for object COSMOS 1375 DEB.

Target Orbit TCA Probability of collision Miss distance Type
SPOT 2 SSO 2025-03-19 05:46:01 0.0001725117 795.0 (m) PAYLOAD
NOAA 17 DEB SSO 2024-09-24 17:48:00 0.0003776504 488.0 (m) DEBRIS

Associated space launch

ASAT target satellite

COSMOS 1375 DEB was lifted into orbit during the mission ‘Kosmos-3M | DS-P1-M 16’, on board a Kosmos-3M space rocket.

The launch took place on June 6, 1982, 5:10 p.m. from 132/2.

For more information about the launch, click the button.

Launch to space Kosmos-3M | DS-P1-M 16
Kosmos-3M | DS-P1-M 16

Agency: N/A

Status: Launch Successful

Launch date: June 6, 1982, 5:10 p.m. UTC

Rocket: Kosmos-3M

Launch pad: 132/2

Location: Plesetsk Cosmodrome, Russian Federation

...

Latest news about this satellite

There are no fresh news available about this satellite. Check back as we update our databases every day.


Newsletter sign-up

Weekly statistics, charts and insights to help you stay on top of the space industry.